QPF
0.00 0.00 0.00 0.00 0.00 0.00 0.00 0.00 0.00 0.00 0.00 0.00 0.00 0.00 0.00 0.01 0.02 0.03 0.02 0.01 0.01 0.02 0.01 0.03 0.04 0.06 0.14 0.23 0.27 0.27 0.28 0.21 0.16 0.17 0.17 0.15 0.11 0.09 0.07 0.05 0.05 0.06 0.06 0.06
0.00 0.00 0.00 0.00 0.00 0.00 0.00 0.00 0.00 0.00 0.00 0.00 0.00 0.00 0.00 0.01 0.01 0.01 0.01 0.01 0.01 0.01 0.02 0.03 0.05 0.08 0.12 0.18 0.18 0.17 0.18 0.17 0.15 0.17 0.17 0.15 0.10 0.07 0.07 0.06 0.05 0.06 0.06 0.06
0.00 0.00 0.00 0.00 0.00 0.00 0.00 0.00 0.00 0.00 0.00 0.00 0.00 0.00 0.00 0.01 0.01 0.01 0.01 0.02 0.01 0.02 0.02 0.05 0.08 0.11 0.13 0.15 0.17 0.15 0.15 0.15 0.15 0.19 0.18 0.15 0.12 0.09 0.06 0.05 0.06 0.06 0.06 0.05
0.00 0.00 0.00 0.00 0.00 0.00 0.00 0.00 0.00 0.00 0.00 0.00 0.00 0.00 0.00 0.01 0.01 0.01 0.01 0.02 0.02 0.02 0.02 0.04 0.06 0.10 0.12 0.13 0.15 0.13 0.12 0.14 0.14 0.15 0.13 0.10 0.07 0.05 0.05 0.07 0.09 0.08 0.06 0.05
0.00 0.00 0.00 0.00 0.00 0.00 0.00 0.00 0.00 0.00 0.00 0.00 0.00 0.00 0.00 0.01 0.01 0.01 0.01 0.02 0.02 0.03 0.03 0.05 0.08 0.11 0.12 0.12 0.12 0.10 0.10 0.10 0.10 0.11 0.12 0.10 0.08 0.06 0.06 0.10 0.12 0.08 0.06 0.05
0.00 0.00 0.00 0.00 0.00 0.00 0.00 0.00 0.00 0.00 0.00 0.00 0.00 0.00 0.00 0.00 0.00 0.01 0.01 0.01 0.02 0.03 0.03 0.05 0.08 0.08 0.09 0.10 0.09 0.09 0.09 0.07 0.09 0.09 0.09 0.09 0.09 0.08 0.08 0.09 0.09 0.07 0.06 0.06
0.00 0.00 0.00 0.00 0.00 0.00 0.00 0.00 0.00 0.00 0.00 0.00 0.00 0.00 0.00 0.00 0.00 0.00 0.01 0.02 0.02 0.03 0.04 0.05 0.06 0.05 0.09 0.08 0.06 0.06 0.08 0.07 0.07 0.07 0.07 0.08 0.08 0.07 0.07 0.07 0.07 0.06 0.04 0.03
0.00 0.00 0.00 0.00 0.00 0.00 0.00 0.00 0.00 0.00 0.00 0.00 0.00 0.00 0.00 0.00 0.00 0.01 0.01 0.02 0.03 0.04 0.05 0.05 0.05 0.06 0.06 0.05 0.04 0.05 0.06 0.06 0.06 0.06 0.07 0.08 0.08 0.06 0.06 0.07 0.08 0.06 0.04 0.04
0.00 0.00 0.00 0.00 0.00 0.00 0.00 0.00 0.00 0.00 0.00 0.00 0.00 0.00 0.00 0.00 0.00 0.00 0.01 0.02 0.03 0.04 0.05 0.05 0.03 0.04 0.04 0.04 0.04 0.04 0.05 0.05 0.05 0.04 0.05 0.08 0.08 0.08 0.08 0.09 0.08 0.04 0.03 0.03
0.00 0.00 0.00 0.00 0.00 0.00 0.00 0.00 0.00 0.00 0.00 0.00 0.00 0.00 0.00 0.00 0.00 0.00 0.01 0.02 0.02 0.03 0.04 0.04 0.03 0.03 0.04 0.04 0.03 0.04 0.05 0.05 0.04 0.05 0.06 0.06 0.07 0.07 0.08 0.09 0.08 0.04 0.04 0.04
0.00 0.00 0.00 0.00 0.00 0.00 0.00 0.00 0.00 0.00 0.00 0.00 0.00 0.00 0.00 0.00 0.01 0.01 0.02 0.03 0.03 0.02 0.03 0.03 0.03 0.03 0.05 0.04 0.03 0.03 0.05 0.04 0.03 0.04 0.07 0.08 0.09 0.07 0.06 0.06 0.05 0.05 0.04 0.05
0.00 0.00 0.00 0.00 0.00 0.00 0.00 0.00 0.00 0.00 0.00 0.00 0.00 0.00 0.00 0.00 0.01 0.01 0.02 0.04 0.03 0.02 0.03 0.04 0.04 0.03 0.04 0.04 0.03 0.03 0.05 0.05 0.05 0.06 0.08 0.09 0.11 0.10 0.07 0.05 0.04 0.04 0.03 0.05
0.00 0.00 0.00 0.00 0.00 0.00 0.00 0.00 0.00 0.00 0.00 0.00 0.00 0.00 0.00 0.01 0.01 0.02 0.02 0.02 0.02 0.02 0.03 0.03 0.04 0.05 0.04 0.04 0.03 0.04 0.05 0.07 0.06 0.07 0.07 0.07 0.07 0.07 0.05 0.04 0.03 0.04 0.04 0.05
0.00 0.00 0.00 0.00 0.00 0.00 0.00 0.00 0.00 0.00 0.00 0.00 0.00 0.00 0.01 0.01 0.00 0.01 0.01 0.01 0.01 0.02 0.04 0.06 0.06 0.06 0.05 0.05 0.04 0.04 0.04 0.05 0.06 0.07 0.06 0.05 0.05 0.05 0.03 0.02 0.02 0.03 0.04 0.05
0.00 0.00 0.00 0.00 0.00 0.00 0.00 0.00 0.00 0.00 0.00 0.00 0.00 0.00 0.00 0.00 0.00 0.01 0.01 0.01 0.01 0.02 0.02 0.03 0.03 0.04 0.04 0.05 0.05 0.04 0.04 0.03 0.03 0.05 0.07 0.06 0.05 0.04 0.02 0.01 0.02 0.02 0.03 0.04
0.00 0.00 0.00 0.00 0.00 0.00 0.00 0.00 0.00 0.00 0.00 0.00 0.00 0.00 0.00 0.00 0.00 0.00 0.01 0.01 0.01 0.01 0.01 0.02 0.02 0.03 0.04 0.06 0.07 0.05 0.05 0.05 0.04 0.04 0.06 0.07 0.06 0.05 0.03 0.03 0.04 0.03 0.03 0.04
0.00 0.00 0.00 0.00 0.00 0.00 0.00 0.00 0.00 0.00 0.00 0.00 0.00 0.00 0.00 0.00 0.00 0.01 0.01 0.02 0.02 0.01 0.02 0.02 0.03 0.05 0.05 0.05 0.05 0.04 0.05 0.05 0.05 0.04 0.05 0.05 0.05 0.04 0.02 0.02 0.03 0.03 0.03 0.04
0.00 0.00 0.00 0.00 0.00 0.00 0.00 0.00 0.00 0.00 0.00 0.00 0.00 0.01 0.01 0.02 0.02 0.02 0.01 0.01 0.02 0.02 0.04 0.06 0.06 0.07 0.07 0.05 0.04 0.04 0.05 0.04 0.04 0.05 0.05 0.05 0.04 0.03 0.02 0.03 0.02 0.03 0.04 0.05
0.00 0.00 0.00 0.00 0.00 0.00 0.00 0.00 0.00 0.00 0.00 0.01 0.01 0.01 0.01 0.02 0.02 0.03 0.03 0.02 0.02 0.03 0.04 0.06 0.08 0.07 0.07 0.05 0.06 0.05 0.05 0.04 0.04 0.05 0.05 0.05 0.03 0.03 0.02 0.03 0.03 0.03 0.03 0.03
0.00 0.00 0.00 0.00 0.00 0.00 0.00 0.00 0.00 0.00 0.01 0.01 0.01 0.01 0.01 0.01 0.02 0.03 0.04 0.04 0.04 0.04 0.04 0.05 0.06 0.05 0.05 0.05 0.06 0.07 0.05 0.04 0.03 0.04 0.04 0.03 0.03 0.03 0.03 0.03 0.04 0.03 0.03 0.03
0.00 0.00 0.00 0.00 0.00 0.00 0.00 0.00 0.00 0.01 0.01 0.01 0.01 0.01 0.01 0.02 0.02 0.03 0.04 0.04 0.04 0.05 0.05 0.06 0.06 0.05 0.05 0.05 0.05 0.05 0.04 0.03 0.03 0.03 0.04 0.03 0.04 0.04 0.05 0.05 0.04 0.03 0.03 0.04
0.00 0.00 0.00 0.00 0.00 0.00 0.00 0.00 0.00 0.01 0.01 0.01 0.02 0.02 0.02 0.03 0.04 0.04 0.05 0.05 0.05 0.05 0.06 0.06 0.06 0.05 0.06 0.07 0.07 0.06 0.04 0.03 0.04 0.04 0.04 0.05 0.06 0.07 0.07 0.06 0.05 0.05 0.05 0.05
0.00 0.00 0.00 0.00 0.00 0.00 0.00 0.00 0.00 0.01 0.01 0.01 0.01 0.02 0.02 0.02 0.03 0.03 0.04 0.05 0.06 0.10 0.12 0.11 0.08 0.06 0.06 0.09 0.09 0.07 0.05 0.04 0.03 0.03 0.04 0.05 0.07 0.08 0.09 0.08 0.07 0.07 0.06 0.05
0.00 0.00 0.01 0.00 0.01 0.01 0.01 0.01 0.01 0.01 0.02 0.01 0.01 0.02 0.02 0.03 0.03 0.04 0.04 0.04 0.04 0.05 0.07 0.08 0.10 0.10 0.09 0.08 0.06 0.06 0.05 0.05 0.04 0.04 0.04 0.04 0.06 0.07 0.07 0.07 0.06 0.06 0.04 0.04
0.00 0.01 0.01 0.01 0.01 0.02 0.02 0.02 0.02 0.02 0.02 0.03 0.03 0.03 0.02 0.02 0.03 0.03 0.04 0.04 0.04 0.03 0.03 0.03 0.04 0.06 0.08 0.07 0.06 0.06 0.05 0.05 0.05 0.05 0.05 0.05 0.05 0.06 0.07 0.06 0.06 0.05 0.04 0.05
0.00 0.01 0.01 0.01 0.01 0.02 0.02 0.02 0.02 0.02 0.03 0.03 0.03 0.04 0.04 0.04 0.04 0.04 0.04 0.04 0.03 0.02 0.02 0.02 0.01 0.02 0.02 0.03 0.04 0.05 0.05 0.05 0.06 0.06 0.05 0.05 0.05 0.05 0.04 0.05 0.06 0.07 0.07 0.08
MSLP
1012.80 1013.65 1014.28 1014.69 1014.90 1014.93 1014.82 1014.61 1014.32 1013.95 1013.50 1012.96 1012.36 1011.71 1011.08 1010.52 1010.11 1009.90 1009.91 1010.14 1010.57 1011.11 1011.71 1012.29 1012.78 1013.17 1013.46 1013.68 1013.87 1014.09 1014.37 1014.73 1015.16 1015.64 1016.13 1016.59 1016.98 1017.29 1017.51 1017.68 1017.82 1017.97 1018.15 1018.40
1013.37 1014.05 1014.50 1014.76 1014.86 1014.85 1014.79 1014.70 1014.56 1014.35 1014.04 1013.61 1013.04 1012.37 1011.65 1010.97 1010.42 1010.08 1009.99 1010.16 1010.55 1011.10 1011.71 1012.29 1012.78 1013.15 1013.40 1013.57 1013.71 1013.90 1014.17 1014.55 1015.02 1015.56 1016.10 1016.59 1017.00 1017.29 1017.47 1017.57 1017.64 1017.73 1017.87 1018.09
1013.63 1014.11 1014.38 1014.50 1014.53 1014.54 1014.58 1014.65 1014.72 1014.73 1014.60 1014.29 1013.78 1013.08 1012.27 1011.45 1010.74 1010.25 1010.03 1010.12 1010.47 1011.00 1011.62 1012.23 1012.74 1013.11 1013.36 1013.51 1013.63 1013.80 1014.08 1014.47 1014.98 1015.56 1016.14 1016.66 1017.07 1017.34 1017.47 1017.51 1017.51 1017.53 1017.62 1017.81
1013.60 1013.88 1013.99 1014.00 1014.01 1014.10 1014.30 1014.59 1014.91 1015.16 1015.24 1015.07 1014.61 1013.88 1012.97 1011.99 1011.11 1010.43 1010.07 1010.04 1010.33 1010.84 1011.48 1012.11 1012.66 1013.06 1013.32 1013.49 1013.61 1013.79 1014.07 1014.48 1015.01 1015.61 1016.22 1016.75 1017.16 1017.40 1017.49 1017.48 1017.41 1017.37 1017.41 1017.56
1013.35 1013.45 1013.44 1013.40 1013.45 1013.67 1014.07 1014.62 1015.21 1015.72 1016.01 1015.97 1015.55 1014.78 1013.75 1012.60 1011.52 1010.65 1010.12 1009.96 1010.17 1010.65 1011.29 1011.96 1012.55 1013.00 1013.30 1013.49 1013.64 1013.82 1014.10 1014.51 1015.04 1015.64 1016.25 1016.78 1017.17 1017.40 1017.46 1017.41 1017.30 1017.21 1017.20 1017.32
1013.01 1012.98 1012.88 1012.85 1012.98 1013.36 1013.99 1014.80 1015.66 1016.41 1016.88 1016.94 1016.55 1015.72 1014.57 1013.25 1011.96 1010.90 1010.20 1009.91 1010.02 1010.46 1011.10 1011.80 1012.44 1012.94 1013.29 1013.51 1013.67 1013.84 1014.11 1014.50 1015.00 1015.58 1016.16 1016.68 1017.06 1017.27 1017.31 1017.24 1017.11 1016.99 1016.96 1017.05
1012.70 1012.57 1012.45 1012.45 1012.70 1013.25 1014.09 1015.13 1016.22 1017.16 1017.76 1017.90 1017.50 1016.61 1015.33 1013.85 1012.39 1011.16 1010.29 1009.88 1009.91 1010.31 1010.94 1011.66 1012.34 1012.88 1013.27 1013.51 1013.67 1013.83 1014.06 1014.40 1014.85 1015.38 1015.92 1016.40 1016.75 1016.96 1017.00 1016.93 1016.80 1016.68 1016.64 1016.71
1012.51 1012.34 1012.21 1012.27 1012.63 1013.33 1014.33 1015.55 1016.79 1017.84 1018.52 1018.68 1018.27 1017.31 1015.93 1014.32 1012.73 1011.37 1010.39 1009.88 1009.85 1010.21 1010.83 1011.56 1012.26 1012.84 1013.24 1013.49 1013.64 1013.76 1013.93 1014.20 1014.57 1015.03 1015.50 1015.94 1016.27 1016.46 1016.52 1016.47 1016.36 1016.26 1016.22 1016.29
1012.49 1012.29 1012.19 1012.30 1012.74 1013.53 1014.63 1015.92 1017.22 1018.31 1018.99 1019.14 1018.68 1017.67 1016.23 1014.56 1012.91 1011.48 1010.45 1009.89 1009.82 1010.16 1010.77 1011.51 1012.22 1012.80 1013.21 1013.44 1013.56 1013.64 1013.74 1013.93 1014.21 1014.57 1014.98 1015.36 1015.66 1015.85 1015.92 1015.89 1015.82 1015.74 1015.72 1015.80
1012.61 1012.41 1012.33 1012.47 1012.94 1013.75 1014.85 1016.12 1017.38 1018.42 1019.05 1019.14 1018.64 1017.60 1016.16 1014.50 1012.86 1011.45 1010.43 1009.88 1009.81 1010.14 1010.75 1011.48 1012.18 1012.76 1013.16 1013.38 1013.47 1013.49 1013.53 1013.63 1013.83 1014.11 1014.43 1014.76 1015.03 1015.21 1015.30 1015.30 1015.25 1015.20 1015.19 1015.26
1012.82 1012.62 1012.54 1012.69 1013.13 1013.88 1014.90 1016.06 1017.18 1018.09 1018.61 1018.62 1018.09 1017.07 1015.68 1014.10 1012.56 1011.25 1010.31 1009.83 1009.80 1010.14 1010.74 1011.46 1012.15 1012.71 1013.09 1013.30 1013.37 1013.36 1013.35 1013.39 1013.52 1013.73 1013.99 1014.27 1014.51 1014.68 1014.77 1014.78 1014.75 1014.71 1014.69 1014.74
1013.03 1012.85 1012.76 1012.88 1013.25 1013.88 1014.74 1015.71 1016.64 1017.37 1017.74 1017.67 1017.12 1016.14 1014.85 1013.42 1012.05 1010.90 1010.10 1009.72 1009.74 1010.11 1010.72 1011.41 1012.08 1012.63 1013.00 1013.21 1013.28 1013.27 1013.25 1013.27 1013.36 1013.53 1013.75 1013.98 1014.19 1014.35 1014.43 1014.44 1014.41 1014.35 1014.32 1014.32
1013.20 1013.04 1012.94 1013.01 1013.27 1013.76 1014.41 1015.15 1015.85 1016.36 1016.57 1016.41 1015.85 1014.95 1013.80 1012.56 1011.39 1010.44 1009.80 1009.54 1009.64 1010.03 1010.63 1011.31 1011.95 1012.49 1012.87 1013.10 1013.20 1013.23 1013.24 1013.28 1013.38 1013.54 1013.74 1013.95 1014.14 1014.27 1014.34 1014.33 1014.28 1014.20 1014.12 1014.06
1013.34 1013.20 1013.10 1013.10 1013.26 1013.57 1014.01 1014.51 1014.95 1015.25 1015.30 1015.05 1014.49 1013.67 1012.68 1011.64 1010.68 1009.92 1009.45 1009.30 1009.46 1009.87 1010.46 1011.11 1011.73 1012.27 1012.67 1012.95 1013.12 1013.23 1013.31 1013.42 1013.56 1013.75 1013.95 1014.16 1014.33 1014.45 1014.49 1014.46 1014.38 1014.25 1014.12 1013.99
1013.50 1013.38 1013.27 1013.22 1013.28 1013.43 1013.67 1013.93 1014.14 1014.22 1014.12 1013.79 1013.23 1012.49 1011.63 1010.76 1009.99 1009.41 1009.07 1009.01 1009.21 1009.63 1010.19 1010.81 1011.41 1011.96 1012.40 1012.75 1013.02 1013.23 1013.43 1013.63 1013.85 1014.09 1014.33 1014.54 1014.71 1014.81 1014.84 1014.78 1014.67 1014.51 1014.32 1014.13
1013.73 1013.63 1013.53 1013.45 1013.42 1013.44 1013.50 1013.55 1013.55 1013.45 1013.20 1012.78 1012.21 1011.51 1010.76 1010.03 1009.40 1008.94 1008.70 1008.69 1008.91 1009.30 1009.82 1010.40 1011.00 1011.56 1012.06 1012.49 1012.88 1013.22 1013.55 1013.86 1014.18 1014.49 1014.77 1015.00 1015.18 1015.28 1015.29 1015.22 1015.09 1014.90 1014.69 1014.45
1014.10 1014.03 1013.93 1013.83 1013.73 1013.65 1013.56 1013.44 1013.26 1012.99 1012.61 1012.11 1011.50 1010.83 1010.13 1009.48 1008.94 1008.55 1008.36 1008.36 1008.55 1008.91 1009.39 1009.94 1010.52 1011.11 1011.67 1012.20 1012.70 1013.18 1013.63 1014.07 1014.48 1014.86 1015.19 1015.45 1015.64 1015.75 1015.77 1015.71 1015.58 1015.40 1015.18 1014.93
1014.64 1014.58 1014.48 1014.36 1014.22 1014.05 1013.85 1013.59 1013.27 1012.86 1012.36 1011.77 1011.11 1010.42 1009.74 1009.12 1008.60 1008.24 1008.04 1008.03 1008.19 1008.50 1008.94 1009.46 1010.04 1010.66 1011.28 1011.90 1012.51 1013.11 1013.68 1014.22 1014.72 1015.16 1015.53 1015.83 1016.04 1016.17 1016.21 1016.18 1016.09 1015.94 1015.75 1015.54
1015.30 1015.23 1015.13 1014.98 1014.79 1014.56 1014.27 1013.91 1013.47 1012.95 1012.34 1011.67 1010.95 1010.22 1009.52 1008.89 1008.37 1007.99 1007.78 1007.73 1007.85 1008.13 1008.53 1009.04 1009.63 1010.28 1010.96 1011.66 1012.36 1013.05 1013.71 1014.33 1014.89 1015.37 1015.78 1016.11 1016.35 1016.51 1016.60 1016.62 1016.59 1016.51 1016.39 1016.24
1015.99 1015.90 1015.76 1015.58 1015.35 1015.06 1014.70 1014.26 1013.73 1013.12 1012.43 1011.68 1010.90 1010.12 1009.39 1008.74 1008.20 1007.80 1007.56 1007.49 1007.58 1007.83 1008.23 1008.74 1009.35 1010.04 1010.77 1011.53 1012.30 1013.05 1013.77 1014.43 1015.03 1015.54 1015.97 1016.32 1016.60 1016.80 1016.94 1017.04 1017.10 1017.11 1017.09 1017.03
1016.61 1016.46 1016.28 1016.05 1015.77 1015.42 1015.00 1014.50 1013.91 1013.23 1012.49 1011.68 1010.86 1010.05 1009.29 1008.61 1008.06 1007.65 1007.40 1007.32 1007.41 1007.67 1008.08 1008.61 1009.25 1009.98 1010.75 1011.56 1012.37 1013.15 1013.89 1014.57 1015.17 1015.70 1016.14 1016.51 1016.82 1017.08 1017.29 1017.48 1017.63 1017.76 1017.85 1017.90
1017.04 1016.82 1016.56 1016.27 1015.93 1015.54 1015.08 1014.54 1013.91 1013.20 1012.42 1011.60 1010.75 1009.93 1009.16 1008.48 1007.93 1007.53 1007.30 1007.25 1007.37 1007.65 1008.10 1008.67 1009.35 1010.11 1010.92 1011.75 1012.57 1013.37 1014.10 1014.77 1015.37 1015.89 1016.34 1016.73 1017.07 1017.38 1017.68 1017.95 1018.21 1018.45 1018.65 1018.82
1017.19 1016.89 1016.56 1016.20 1015.81 1015.38 1014.89 1014.33 1013.69 1012.97 1012.20 1011.38 1010.55 1009.74 1008.99 1008.34 1007.83 1007.46 1007.28 1007.27 1007.44 1007.79 1008.28 1008.91 1009.63 1010.43 1011.26 1012.09 1012.91 1013.69 1014.40 1015.04 1015.62 1016.13 1016.58 1016.99 1017.37 1017.74 1018.11 1018.47 1018.83 1019.17 1019.49 1019.75
1017.05 1016.67 1016.27 1015.85 1015.42 1014.96 1014.45 1013.89 1013.27 1012.58 1011.83 1011.05 1010.27 1009.50 1008.80 1008.21 1007.75 1007.45 1007.33 1007.40 1007.64 1008.06 1008.62 1009.30 1010.06 1010.88 1011.72 1012.55 1013.34 1014.09 1014.76 1015.37 1015.92 1016.41 1016.86 1017.29 1017.71 1018.14 1018.58 1019.03 1019.47 1019.90 1020.31 1020.66
1016.64 1016.19 1015.74 1015.28 1014.82 1014.35 1013.85 1013.32 1012.73 1012.09 1011.40 1010.68 1009.95 1009.26 1008.63 1008.11 1007.73 1007.51 1007.48 1007.62 1007.95 1008.44 1009.06 1009.79 1010.59 1011.42 1012.26 1013.07 1013.83 1014.53 1015.16 1015.73 1016.24 1016.72 1017.17 1017.62 1018.08 1018.56 1019.06 1019.57 1020.09 1020.59 1021.06 1021.48
1016.04 1015.55 1015.06 1014.59 1014.12 1013.66 1013.20 1012.70 1012.16 1011.58 1010.96 1010.32 1009.67 1009.05 1008.51 1008.08 1007.79 1007.66 1007.71 1007.95 1008.35 1008.91 1009.59 1010.36 1011.18 1012.02 1012.83 1013.61 1014.32 1014.98 1015.56 1016.08 1016.56 1017.02 1017.48 1017.94 1018.43 1018.95 1019.50 1020.07 1020.64 1021.19 1021.71 1022.17
Thickness
5791 5776 5766 5771 5775 5777 5775 5770 5765 5776 5793 5789 5785 5785 5792 5799 5798 5793 5791 5788 5786 5783 5782 5780 5777 5773 5767 5761 5755 5751 5747 5745 5742 5737 5734 5731 5730 5731 5731 5732 5733 5732 5732 5732
5771 5766 5777 5782 5782 5778 5774 5767 5765 5776 5790 5788 5781 5782 5791 5795 5794 5795 5792 5788 5785 5781 5778 5776 5773 5770 5766 5760 5755 5751 5748 5745 5743 5740 5737 5735 5733 5732 5733 5733 5733 5733 5733 5732
5765 5773 5785 5780 5776 5772 5770 5766 5767 5769 5778 5781 5778 5771 5781 5791 5795 5795 5793 5790 5786 5782 5777 5774 5771 5768 5764 5759 5755 5753 5748 5746 5743 5741 5738 5736 5733 5732 5731 5732 5732 5733 5733 5733
5767 5778 5781 5777 5774 5773 5761 5777 5775 5772 5761 5751 5764 5744 5770 5779 5783 5787 5789 5788 5785 5782 5778 5774 5770 5765 5762 5759 5756 5753 5749 5746 5744 5742 5740 5736 5733 5731 5732 5733 5733 5733 5733 5733
5763 5776 5776 5772 5777 5778 5773 5782 5777 5770 5759 5748 5752 5744 5755 5772 5774 5782 5787 5787 5785 5782 5778 5774 5770 5766 5763 5759 5756 5752 5749 5746 5744 5743 5741 5738 5735 5734 5733 5732 5732 5731 5732 5732
5769 5781 5784 5782 5788 5787 5784 5772 5762 5748 5740 5730 5745 5741 5746 5762 5774 5781 5787 5787 5785 5783 5779 5775 5772 5766 5762 5759 5755 5753 5749 5746 5745 5743 5741 5739 5736 5734 5732 5731 5730 5730 5730 5730
5759 5771 5783 5789 5779 5781 5774 5748 5724 5724 5713 5720 5740 5739 5746 5775 5783 5786 5787 5787 5786 5782 5778 5774 5769 5765 5760 5757 5755 5753 5750 5747 5746 5743 5741 5740 5737 5735 5733 5732 5731 5730 5729 5729
5739 5742 5771 5782 5777 5767 5764 5751 5723 5713 5710 5717 5735 5736 5759 5783 5789 5791 5791 5788 5785 5780 5776 5773 5770 5766 5761 5758 5756 5753 5750 5748 5746 5744 5742 5740 5739 5737 5735 5734 5732 5731 5730 5731
5732 5740 5773 5784 5787 5776 5755 5747 5748 5722 5718 5716 5725 5743 5766 5782 5783 5785 5785 5784 5781 5778 5775 5772 5770 5766 5763 5759 5757 5754 5751 5749 5747 5745 5743 5741 5740 5738 5736 5735 5733 5732 5731 5731
5746 5742 5762 5776 5780 5774 5768 5749 5731 5718 5705 5706 5723 5733 5744 5768 5773 5777 5779 5779 5778 5777 5773 5770 5767 5765 5763 5760 5757 5754 5752 5750 5748 5746 5744 5743 5741 5739 5737 5735 5733 5732 5731 5730
5750 5740 5748 5759 5762 5758 5753 5746 5730 5716 5716 5705 5708 5728 5766 5771 5776 5777 5779 5780 5778 5776 5773 5770 5766 5764 5762 5759 5756 5753 5750 5748 5747 5746 5744 5742 5740 5738 5736 5733 5732 5731 5730 5729
5746 5731 5725 5743 5764 5771 5765 5751 5737 5725 5717 5711 5712 5731 5778 5778 5779 5779 5779 5780 5779 5776 5774 5770 5766 5763 5761 5758 5756 5753 5750 5748 5746 5744 5742 5741 5739 5737 5734 5732 5731 5729 5728 5727
5741 5726 5715 5724 5739 5756 5756 5751 5745 5732 5715 5705 5711 5737 5774 5776 5777 5779 5779 5779 5777 5774 5772 5768 5765 5762 5760 5757 5754 5752 5750 5748 5746 5743 5741 5739 5737 5734 5732 5730 5729 5727 5725 5724
5748 5725 5720 5718 5728 5745 5750 5749 5743 5736 5718 5712 5723 5743 5763 5769 5771 5774 5776 5776 5774 5772 5770 5766 5763 5761 5759 5756 5754 5751 5748 5747 5744 5741 5739 5736 5734 5732 5730 5728 5726 5724 5723 5721
5741 5725 5730 5737 5747 5750 5752 5751 5745 5744 5737 5731 5740 5743 5760 5769 5772 5775 5776 5774 5772 5769 5767 5765 5762 5760 5757 5755 5752 5749 5747 5745 5743 5739 5736 5734 5731 5729 5726 5724 5722 5721 5719 5717
5728 5724 5728 5733 5741 5745 5744 5748 5747 5748 5745 5744 5748 5750 5768 5772 5772 5771 5772 5771 5770 5769 5768 5766 5763 5760 5756 5754 5751 5748 5745 5743 5740 5736 5733 5730 5727 5724 5721 5719 5717 5716 5713 5711
5714 5716 5711 5712 5729 5736 5725 5741 5745 5748 5750 5748 5746 5758 5768 5767 5767 5769 5771 5772 5771 5771 5768 5765 5762 5759 5756 5754 5752 5747 5743 5740 5736 5733 5729 5726 5722 5719 5717 5714 5712 5709 5706 5704
5710 5704 5697 5700 5713 5704 5725 5747 5751 5749 5751 5754 5757 5762 5765 5767 5769 5771 5771 5771 5770 5769 5766 5763 5761 5757 5754 5751 5748 5744 5740 5736 5732 5728 5725 5721 5717 5714 5710 5707 5704 5702 5699 5696
5708 5702 5690 5686 5691 5703 5725 5739 5741 5739 5741 5752 5753 5757 5760 5763 5763 5762 5767 5768 5767 5766 5764 5761 5758 5756 5752 5748 5744 5740 5735 5731 5727 5723 5719 5716 5712 5708 5704 5700 5697 5694 5692 5689
5696 5697 5688 5682 5687 5688 5715 5737 5744 5739 5731 5749 5750 5751 5753 5755 5745 5752 5762 5763 5761 5760 5758 5756 5754 5750 5747 5743 5740 5734 5729 5725 5721 5718 5714 5710 5706 5702 5698 5694 5690 5687 5684 5680
5680 5679 5679 5678 5682 5692 5717 5730 5736 5717 5726 5746 5747 5749 5749 5747 5750 5753 5756 5755 5754 5753 5751 5749 5746 5743 5740 5737 5733 5726 5722 5718 5715 5712 5708 5704 5699 5695 5691 5687 5683 5679 5675 5671
5667 5668 5667 5668 5673 5684 5716 5721 5719 5722 5735 5739 5742 5744 5743 5743 5745 5747 5747 5746 5745 5743 5742 5740 5737 5733 5731 5729 5725 5719 5714 5710 5708 5704 5700 5695 5691 5688 5683 5679 5674 5670 5667 5663
5658 5664 5665 5671 5677 5694 5704 5710 5718 5723 5726 5731 5734 5737 5738 5736 5736 5737 5736 5736 5734 5733 5731 5730 5728 5723 5720 5718 5716 5711 5706 5703 5700 5696 5691 5687 5682 5678 5674 5670 5665 5661 5658 5654
5654 5660 5661 5666 5678 5689 5696 5704 5711 5717 5721 5725 5728 5730 5731 5729 5727 5726 5725 5724 5724 5722 5721 5720 5717 5713 5709 5706 5704 5702 5698 5694 5692 5688 5682 5678 5673 5668 5663 5660 5656 5652 5648 5644
5646 5652 5652 5658 5670 5680 5689 5694 5701 5708 5713 5717 5719 5721 5721 5720 5718 5716 5714 5713 5713 5712 5711 5710 5707 5703 5699 5696 5693 5691 5689 5686 5682 5678 5673 5668 5663 5658 5653 5647 5643 5641 5637 5635
5638 5642 5645 5651 5663 5667 5675 5684 5692 5696 5701 5705 5707 5708 5709 5710 5708 5706 5704 5702 5702 5701 5699 5697 5694 5692 5690 5686 5683 5681 5679 5676 5672 5667 5662 5657 5653 5648 5642 5637 5630 5626 5624 5622